Time,TemperatureF,DewpointF,PressureIn,WindDirection,WindDirectionDegrees,WindSpeedMPH,WindSpeedGustMPH,Humidity,HourlyPrecipIn,Conditions,Clouds,dailyrainin,SoftwareType,DateUTC
2013-03-10 00:01:00,61.0,60.0,29.70,SSW,213,0.0,7.0,95,0.07,,,0.70,,2013-03-10 06:01:00,
2013-03-10 00:11:00,61.0,60.0,29.72,SW,224,5.0,8.0,95,0.06,,,0.71,,2013-03-10 06:11:00,
2013-03-10 00:22:00,61.0,60.0,29.72,SW,224,5.0,8.0,95,0.06,,,0.71,,2013-03-10 06:22:00,
2013-03-10 00:32:00,61.0,60.0,29.71,SSE,163,4.0,6.0,95,0.03,,,0.71,,2013-03-10 06:32:00,
2013-03-10 00:42:00,61.0,60.0,29.70,South,179,0.0,1.0,95,0.01,,,0.71,,2013-03-10 06:42:00,
2013-03-10 00:52:00,61.0,60.0,29.70,South,179,0.0,1.0,95,0.01,,,0.71,,2013-03-10 06:52:00,
2013-03-10 01:01:00,61.0,60.0,29.71,South,181,2.0,6.0,95,0.01,,,0.71,,2013-03-10 07:01:00,
2013-03-10 01:11:00,61.0,60.0,29.72,South,181,2.0,6.0,95,0.00,,,0.71,,2013-03-10 07:11:00,
2013-03-10 01:21:00,61.0,60.0,29.72,South,181,2.0,6.0,95,0.00,,,0.71,,2013-03-10 07:21:00,
2013-03-10 01:31:00,61.0,60.0,29.71,South,181,1.0,5.0,95,0.00,,,0.71,,2013-03-10 07:31:00,
2013-03-10 01:42:00,60.0,59.0,29.71,South,184,1.0,3.0,95,0.00,,,0.71,,2013-03-10 07:42:00,
2013-03-10 01:52:00,60.0,59.0,29.71,South,184,1.0,3.0,95,0.00,,,0.71,,2013-03-10 07:52:00,
2013-03-10 03:01:00,60.0,59.0,29.71,South,187,2.0,5.0,95,0.00,,,0.71,,2013-03-10 08:01:00,
2013-03-10 03:11:00,60.0,59.0,29.73,SSW,192,3.0,7.0,95,0.00,,,0.71,,2013-03-10 08:11:00,
2013-03-10 03:21:00,60.0,59.0,29.73,SSW,192,3.0,7.0,95,0.00,,,0.71,,2013-03-10 08:21:00,
2013-03-10 03:31:00,59.0,57.0,29.75,West,264,6.0,10.0,93,0.00,,,0.71,,2013-03-10 08:31:00,
2013-03-10 03:42:00,59.0,54.0,29.74,WNW,296,6.0,8.0,85,0.00,,,0.71,,2013-03-10 08:42:00,
2013-03-10 03:52:00,59.0,54.0,29.74,WNW,296,6.0,8.0,85,0.00,,,0.71,,2013-03-10 08:52:00,
2013-03-10 04:01:00,60.0,51.0,29.74,WNW,298,10.0,18.0,71,0.00,,,0.71,,2013-03-10 09:01:00,
2013-03-10 04:11:00,60.0,50.0,29.75,WNW,285,9.0,15.0,69,0.00,,,0.71,,2013-03-10 09:11:00,
2013-03-10 04:21:00,60.0,50.0,29.75,WNW,285,9.0,15.0,69,0.00,,,0.71,,2013-03-10 09:21:00,
2013-03-10 04:31:00,59.0,46.0,29.74,WNW,296,14.0,18.0,62,0.00,,,0.71,,2013-03-10 09:31:00,
2013-03-10 04:41:00,59.0,45.0,29.75,WNW,300,13.0,22.0,60,0.00,,,0.71,,2013-03-10 09:41:00,
2013-03-10 04:52:00,59.0,45.0,29.75,WNW,300,13.0,22.0,60,0.00,,,0.71,,2013-03-10 09:52:00,
2013-03-10 05:01:00,59.0,45.0,29.74,WNW,293,9.0,21.0,60,0.00,,,0.71,,2013-03-10 10:01:00,
2013-03-10 05:11:00,59.0,45.0,29.74,WNW,293,9.0,21.0,60,0.00,,,0.71,,2013-03-10 10:11:00,
2013-03-10 05:21:00,58.0,44.0,29.76,WNW,288,11.0,16.0,60,0.00,,,0.71,,2013-03-10 10:21:00,
2013-03-10 05:32:00,57.0,45.0,29.80,West,276,7.0,14.0,63,0.00,,,0.71,,2013-03-10 10:32:00,
2013-03-10 05:41:00,56.0,44.0,29.76,West,259,3.0,12.0,65,0.00,,,0.71,,2013-03-10 10:41:00,
2013-03-10 05:52:00,56.0,44.0,29.76,West,259,3.0,12.0,65,0.00,,,0.71,,2013-03-10 10:52:00,
2013-03-10 06:01:00,56.0,45.0,29.75,West,273,3.0,6.0,66,0.00,,,0.71,,2013-03-10 11:01:00,
2013-03-10 06:11:00,55.0,45.0,29.72,West,273,0.0,2.0,68,0.00,,,0.71,,2013-03-10 11:11:00,
2013-03-10 06:21:00,55.0,45.0,29.72,West,273,0.0,2.0,68,0.00,,,0.71,,2013-03-10 11:21:00,
2013-03-10 06:31:00,55.0,46.0,29.70,West,273,0.0,0.0,71,0.00,,,0.71,,2013-03-10 11:31:00,
2013-03-10 06:42:00,55.0,46.0,29.70,West,273,0.0,0.0,71,0.00,,,0.71,,2013-03-10 11:42:00,
2013-03-10 06:52:00,54.0,46.0,29.71,West,273,1.0,6.0,75,0.00,,,0.71,,2013-03-10 11:52:00,
2013-03-10 07:01:00,54.0,47.0,29.74,SW,219,4.0,8.0,76,0.00,,,0.71,,2013-03-10 12:01:00,
2013-03-10 07:11:00,54.0,47.0,29.74,SW,219,4.0,8.0,76,0.00,,,0.71,,2013-03-10 12:11:00,
2013-03-10 07:21:00,54.0,47.0,29.74,SSW,205,4.0,6.0,77,0.00,,,0.71,,2013-03-10 12:21:00,
2013-03-10 07:31:00,54.0,47.0,29.74,SSW,204,3.0,6.0,76,0.00,,,0.71,,2013-03-10 12:31:00,
2013-03-10 07:42:00,54.0,47.0,29.74,SSW,204,3.0,6.0,76,0.00,,,0.71,,2013-03-10 12:42:00,
2013-03-10 07:52:00,55.0,46.0,29.75,WNW,299,9.0,20.0,71,0.00,,,0.71,,2013-03-10 12:52:00,
2013-03-10 08:01:00,54.0,44.0,29.78,WNW,298,17.0,28.0,68,0.00,,,0.71,,2013-03-10 13:01:00,
2013-03-10 08:11:00,54.0,44.0,29.78,WNW,298,17.0,28.0,68,0.00,,,0.71,,2013-03-10 13:11:00,
2013-03-10 08:21:00,53.0,42.0,29.78,WNW,299,11.0,20.0,66,0.00,,,0.71,,2013-03-10 13:21:00,
2013-03-10 08:31:00,52.0,38.0,29.81,NW,316,20.0,28.0,58,0.00,,,0.71,,2013-03-10 13:31:00,
2013-03-10 08:41:00,52.0,38.0,29.81,NW,316,20.0,28.0,58,0.00,,,0.71,,2013-03-10 13:41:00,
2013-03-10 08:52:00,51.0,37.0,29.81,NW,305,14.0,23.0,59,0.00,,,0.71,,2013-03-10 13:52:00,
2013-03-10 09:01:00,50.0,36.0,29.83,WNW,292,10.0,23.0,59,0.00,,,0.71,,2013-03-10 14:01:00,
2013-03-10 09:11:00,50.0,36.0,29.83,WNW,292,10.0,23.0,59,0.00,,,0.71,,2013-03-10 14:11:00,
2013-03-10 09:21:00,50.0,36.0,29.83,WNW,288,7.0,12.0,59,0.00,,,0.71,,2013-03-10 14:21:00,
2013-03-10 09:32:00,50.0,37.0,29.84,WNW,294,12.0,18.0,60,0.00,,,0.71,,2013-03-10 14:32:00,
2013-03-10 09:41:00,50.0,37.0,29.84,WNW,294,12.0,18.0,60,0.00,,,0.71,,2013-03-10 14:41:00,
2013-03-10 09:52:00,50.0,37.0,29.85,WNW,284,8.0,14.0,60,0.00,,,0.71,,2013-03-10 14:52:00,
2013-03-10 10:01:00,50.0,37.0,29.86,WNW,294,10.0,21.0,60,0.00,,,0.71,,2013-03-10 15:01:00,
2013-03-10 10:11:00,50.0,37.0,29.86,WNW,294,10.0,21.0,60,0.00,,,0.71,,2013-03-10 15:11:00,
2013-03-10 10:21:00,51.0,37.0,29.87,WNW,302,13.0,21.0,59,0.00,,,0.71,,2013-03-10 15:21:00,
2013-03-10 10:32:00,51.0,37.0,29.88,NW,305,12.0,22.0,58,0.00,,,0.71,,2013-03-10 15:32:00,
2013-03-10 10:42:00,51.0,37.0,29.88,NW,305,12.0,22.0,58,0.00,,,0.71,,2013-03-10 15:42:00,
2013-03-10 10:52:00,51.0,37.0,29.89,NW,325,14.0,24.0,58,0.00,,,0.71,,2013-03-10 15:52:00,
2013-03-10 11:01:00,51.0,36.0,29.90,WNW,299,18.0,26.0,57,0.00,,,0.71,,2013-03-10 16:01:00,
2013-03-10 11:12:00,51.0,36.0,29.90,WNW,299,18.0,26.0,57,0.00,,,0.71,,2013-03-10 16:12:00,
2013-03-10 11:21:00,51.0,36.0,29.91,NW,305,17.0,26.0,56,0.00,,,0.71,,2013-03-10 16:21:00,
2013-03-10 11:31:00,50.0,35.0,29.91,NNW,332,16.0,24.0,57,0.00,,,0.71,,2013-03-10 16:31:00,
2013-03-10 11:41:00,50.0,35.0,29.91,NNW,332,16.0,24.0,57,0.00,,,0.71,,2013-03-10 16:41:00,
2013-03-10 11:52:00,50.0,35.0,29.92,WNW,296,11.0,26.0,56,0.00,,,0.71,,2013-03-10 16:52:00,
2013-03-10 12:01:00,50.0,35.0,29.93,NW,307,14.0,28.0,56,0.00,,,0.71,,2013-03-10 17:01:00,
2013-03-10 12:11:00,50.0,35.0,29.93,NW,307,14.0,28.0,56,0.00,,,0.71,,2013-03-10 17:11:00,
2013-03-10 12:21:00,50.0,35.0,29.94,WNW,282,17.0,24.0,57,0.00,,,0.71,,2013-03-10 17:21:00,
2013-03-10 12:31:00,51.0,36.0,29.94,WNW,303,16.0,24.0,56,0.00,,,0.71,,2013-03-10 17:31:00,
2013-03-10 12:41:00,51.0,36.0,29.94,WNW,303,16.0,24.0,56,0.00,,,0.71,,2013-03-10 17:41:00,
2013-03-10 12:51:00,50.0,35.0,29.96,WNW,294,21.0,33.0,56,0.00,,,0.71,,2013-03-10 17:51:00,
2013-03-10 13:01:00,50.0,36.0,29.96,WNW,295,13.0,26.0,58,0.00,,,0.71,,2013-03-10 18:01:00,
2013-03-10 13:11:00,49.0,35.0,29.96,NW,310,14.0,26.0,59,0.00,,,0.71,,2013-03-10 18:11:00,
2013-03-10 13:21:00,49.0,35.0,29.96,NW,310,14.0,26.0,59,0.00,,,0.71,,2013-03-10 18:21:00,
2013-03-10 13:31:00,49.0,35.0,29.96,NW,308,16.0,29.0,59,0.00,,,0.71,,2013-03-10 18:31:00,
2013-03-10 13:41:00,49.0,35.0,29.96,NW,308,16.0,29.0,59,0.00,,,0.71,,2013-03-10 18:41:00,
2013-03-10 13:52:00,49.0,35.0,29.95,WNW,303,16.0,25.0,59,0.00,,,0.71,,2013-03-10 18:52:00,
2013-03-10 14:01:00,49.0,35.0,29.96,NW,323,17.0,30.0,58,0.00,,,0.71,,2013-03-10 19:01:00,
2013-03-10 14:11:00,49.0,35.0,29.96,NW,323,17.0,30.0,58,0.00,,,0.71,,2013-03-10 19:11:00,
2013-03-10 14:21:00,50.0,35.0,29.96,West,270,17.0,30.0,57,0.00,,,0.71,,2013-03-10 19:21:00,
2013-03-10 14:31:00,50.0,35.0,29.95,WNW,295,17.0,31.0,56,0.00,,,0.71,,2013-03-10 19:31:00,
2013-03-10 14:42:00,50.0,35.0,29.95,WNW,295,17.0,31.0,56,0.00,,,0.71,,2013-03-10 19:42:00,
2013-03-10 14:53:00,50.0,34.0,29.95,NW,316,16.0,26.0,54,0.00,,,0.71,,2013-03-10 19:53:00,
2013-03-10 15:02:00,50.0,34.0,29.95,WNW,294,17.0,32.0,55,0.00,,,0.71,,2013-03-10 20:02:00,
2013-03-10 15:12:00,50.0,34.0,29.95,WNW,294,17.0,32.0,55,0.00,,,0.71,,2013-03-10 20:12:00,
2013-03-10 15:22:00,51.0,34.0,29.95,WNW,300,17.0,26.0,53,0.00,,,0.71,,2013-03-10 20:22:00,
2013-03-10 15:32:00,52.0,35.0,29.95,NW,325,16.0,22.0,53,0.00,,,0.71,,2013-03-10 20:32:00,
2013-03-10 15:42:00,52.0,35.0,29.95,NW,325,16.0,22.0,53,0.00,,,0.71,,2013-03-10 20:42:00,
2013-03-10 15:53:00,51.0,35.0,29.95,NW,307,16.0,26.0,54,0.00,,,0.71,,2013-03-10 20:53:00,
2013-03-10 16:02:00,51.0,35.0,29.96,NW,315,15.0,22.0,54,0.00,,,0.71,,2013-03-10 21:02:00,
2013-03-10 16:12:00,51.0,35.0,29.96,NW,315,15.0,22.0,54,0.00,,,0.71,,2013-03-10 21:12:00,
2013-03-10 16:22:00,51.0,34.0,29.96,NW,317,14.0,25.0,53,0.00,,,0.71,,2013-03-10 21:22:00,
2013-03-10 16:32:00,52.0,35.0,29.96,NW,313,13.0,21.0,52,0.00,,,0.71,,2013-03-10 21:32:00,
2013-03-10 16:42:00,52.0,35.0,29.96,NW,313,13.0,21.0,52,0.00,,,0.71,,2013-03-10 21:42:00,
2013-03-10 16:53:00,51.0,34.0,29.96,NW,309,12.0,23.0,52,0.00,,,0.71,,2013-03-10 21:53:00,
2013-03-10 17:02:00,52.0,34.0,29.96,NW,305,18.0,25.0,50,0.00,,,0.71,,2013-03-10 22:02:00,
2013-03-10 17:12:00,52.0,34.0,29.96,NW,305,18.0,25.0,50,0.00,,,0.71,,2013-03-10 22:12:00,
2013-03-10 17:22:00,52.0,35.0,29.96,WNW,301,10.0,25.0,52,0.00,,,0.71,,2013-03-10 22:22:00,
2013-03-10 17:32:00,52.0,34.0,29.96,North,350,18.0,26.0,50,0.00,,,0.71,,2013-03-10 22:32:00,
2013-03-10 17:42:00,52.0,34.0,29.96,North,350,18.0,26.0,50,0.00,,,0.71,,2013-03-10 22:42:00,
2013-03-10 17:53:00,51.0,34.0,29.96,NW,325,13.0,20.0,51,0.00,,,0.71,,2013-03-10 22:53:00,
2013-03-10 18:02:00,51.0,33.0,29.96,NW,319,18.0,26.0,49,0.00,,,0.71,,2013-03-10 23:02:00,
2013-03-10 18:12:00,51.0,33.0,29.97,NW,324,13.0,21.0,49,0.00,,,0.71,,2013-03-10 23:12:00,
2013-03-10 18:22:00,51.0,33.0,29.97,NW,324,13.0,21.0,49,0.00,,,0.71,,2013-03-10 23:22:00,
2013-03-10 18:32:00,50.0,32.0,29.98,WNW,300,17.0,22.0,49,0.00,,,0.71,,2013-03-10 23:32:00,
2013-03-10 18:42:00,50.0,32.0,29.98,WNW,300,17.0,22.0,49,0.00,,,0.71,,2013-03-10 23:42:00,
2013-03-10 18:52:00,50.0,32.0,29.99,NW,312,17.0,22.0,50,0.00,,,0.71,,2013-03-10 23:52:00,
2013-03-10 19:02:00,49.0,32.0,29.99,NW,314,13.0,20.0,51,0.00,,,0.71,,2013-03-11 00:02:00,
2013-03-10 19:12:00,49.0,32.0,29.99,NW,314,13.0,20.0,51,0.00,,,0.71,,2013-03-11 00:12:00,
2013-03-10 19:22:00,49.0,32.0,30.00,NNW,347,12.0,20.0,51,0.00,,,0.71,,2013-03-11 00:22:00,
2013-03-10 19:33:00,49.0,32.0,30.01,NW,314,9.0,20.0,52,0.00,,,0.71,,2013-03-11 00:33:00,
2013-03-10 19:42:00,49.0,32.0,30.01,NW,314,9.0,20.0,52,0.00,,,0.71,,2013-03-11 00:42:00,
2013-03-10 19:53:00,48.0,31.0,30.02,NW,306,9.0,16.0,52,0.00,,,0.71,,2013-03-11 00:53:00,
2013-03-10 20:02:00,48.0,32.0,30.02,NW,315,5.0,8.0,53,0.00,,,0.71,,2013-03-11 01:02:00,
2013-03-10 20:12:00,48.0,32.0,30.02,NW,315,5.0,8.0,53,0.00,,,0.71,,2013-03-11 01:12:00,
2013-03-10 20:22:00,48.0,32.0,30.03,NW,315,6.0,8.0,54,0.00,,,0.71,,2013-03-11 01:22:00,
2013-03-10 20:32:00,47.0,31.0,30.03,NW,317,3.0,9.0,54,0.00,,,0.71,,2013-03-11 01:32:00,
2013-03-10 20:42:00,47.0,31.0,30.03,NW,317,3.0,9.0,54,0.00,,,0.71,,2013-03-11 01:42:00,
2013-03-10 20:53:00,47.0,32.0,30.04,NW,317,1.0,3.0,55,0.00,,,0.71,,2013-03-11 01:53:00,
2013-03-10 21:02:00,47.0,32.0,30.05,NW,317,1.0,2.0,56,0.00,,,0.71,,2013-03-11 02:02:00,
2013-03-10 21:12:00,47.0,32.0,30.05,NW,317,1.0,2.0,56,0.00,,,0.71,,2013-03-11 02:12:00,
2013-03-10 21:22:00,46.0,32.0,30.06,NW,317,0.0,1.0,57,0.00,,,0.71,,2013-03-11 02:22:00,
2013-03-10 21:32:00,46.0,32.0,30.06,NW,317,0.0,1.0,58,0.00,,,0.71,,2013-03-11 02:32:00,
2013-03-10 21:42:00,46.0,32.0,30.06,NW,317,0.0,1.0,58,0.00,,,0.71,,2013-03-11 02:42:00,
2013-03-10 21:52:00,45.0,32.0,30.07,NW,317,0.0,2.0,59,0.00,,,0.70,,2013-03-11 02:52:00,
2013-03-10 22:02:00,45.0,32.0,30.08,NW,317,0.0,0.0,60,0.00,,,0.67,,2013-03-11 03:02:00,
2013-03-10 22:12:00,45.0,32.0,30.08,NW,317,0.0,0.0,60,0.00,,,0.67,,2013-03-11 03:12:00,
2013-03-10 22:22:00,44.0,32.0,30.08,NW,317,0.0,0.0,62,0.00,,,0.58,,2013-03-11 03:22:00,
2013-03-10 22:32:00,44.0,33.0,30.09,NW,317,0.0,0.0,64,0.00,,,0.27,,2013-03-11 03:32:00,
2013-03-10 22:42:00,44.0,33.0,30.09,NW,317,0.0,0.0,64,0.00,,,0.27,,2013-03-11 03:42:00,
2013-03-10 22:53:00,43.0,32.0,30.08,NW,317,0.0,0.0,64,0.00,,,0.27,,2013-03-11 03:53:00,
2013-03-10 23:02:00,43.0,32.0,30.08,NW,317,0.0,0.0,66,0.00,,,0.26,,2013-03-11 04:02:00,
2013-03-10 23:12:00,43.0,32.0,30.08,NW,317,0.0,0.0,66,0.00,,,0.26,,2013-03-11 04:12:00,
2013-03-10 23:22:00,42.0,33.0,30.07,NW,317,0.0,0.0,69,0.00,,,0.25,,2013-03-11 04:22:00,
2013-03-10 23:32:00,41.0,33.0,30.07,NW,317,0.0,0.0,72,0.00,,,0.13,,2013-03-11 04:32:00,
2013-03-10 23:42:00,41.0,33.0,30.07,NW,317,0.0,0.0,72,0.00,,,0.13,,2013-03-11 04:42:00,
2013-03-10 23:53:00,40.0,32.0,30.06,NW,317,0.0,0.0,74,0.00,,,0.11,,2013-03-11 04:53:00,